{"data":{"norad_id":62174,"epoch":"2026-09-21T17:37:39.312192Z","epoch_age_seconds":70932,"freshness":"FRESH","line1":"1 62174U 24225M   26264.73448278  .00001186  00000+0  10713-3 0  9998","line2":"2 62174  70.0024  30.0392 0002924 276.3999  83.6827 14.98339927 99247","mean_motion":14.98339927,"eccentricity":0.0002924,"inclination_deg":70.0024,"raan_deg":30.0392,"arg_perigee_deg":276.3999,"mean_anomaly_deg":83.6827,"bstar":0.00010713,"rev_number":9924,"period_min":96.106362384882,"perigee_km":569.99296526015,"apogee_km":574.05742011043,"semimajor_km":6950.1621926853,"source":"CELESTRAK","updated_at":"2026-09-22T09:00:49.536373Z"}}